TimeEDT,TemperatureF,Dew PointF,Humidity,Sea Level PressureIn,VisibilityMPH,Wind Direction,Wind SpeedMPH,Gust SpeedMPH,PrecipitationIn,Events,Conditions,WindDirDegrees,DateUTC
12:53 AM,34.0,30.0,85,30.11,10.0,Calm,Calm,-,N/A,,Clear,0,2011-10-30 04:53:00
1:53 AM,30.9,30.0,96,30.12,9.0,Variable,3.5,-,N/A,,Clear,0,2011-10-30 05:53:00
2:53 AM,30.9,28.9,92,30.13,10.0,Calm,Calm,-,N/A,,Clear,0,2011-10-30 06:53:00
3:53 AM,30.2,28.4,93,30.14,10.0,Calm,Calm,-,N/A,,Clear,0,2011-10-30 07:53:00
4:53 AM,36.0,28.9,76,30.17,10.0,Calm,Calm,-,N/A,,Clear,0,2011-10-30 08:53:00
5:53 AM,33.1,28.9,85,30.19,10.0,Calm,Calm,-,N/A,,Clear,0,2011-10-30 09:53:00
6:53 AM,30.0,27.0,88,30.22,10.0,Calm,Calm,-,N/A,,Clear,0,2011-10-30 10:53:00
7:53 AM,30.2,26.6,86,30.24,8.0,Calm,Calm,-,N/A,,Clear,0,2011-10-30 11:53:00
8:53 AM,35.1,30.9,85,30.29,10.0,Calm,Calm,-,N/A,,Clear,0,2011-10-30 12:53:00
9:53 AM,39.9,33.1,77,30.31,10.0,SSE,3.5,-,N/A,,Clear,150,2011-10-30 13:53:00
10:53 AM,46.0,35.1,66,30.31,10.0,WSW,3.5,-,N/A,,Clear,240,2011-10-30 14:53:00
11:53 AM,50.0,33.1,52,30.31,10.0,Calm,Calm,-,N/A,,Clear,0,2011-10-30 15:53:00
12:53 PM,51.1,30.0,44,30.31,10.0,ESE,4.6,-,N/A,,Clear,110,2011-10-30 16:53:00
1:53 PM,53.1,28.9,40,30.29,10.0,Calm,Calm,-,N/A,,Clear,0,2011-10-30 17:53:00
2:53 PM,54.0,30.0,40,30.28,10.0,South,5.8,-,N/A,,Clear,190,2011-10-30 18:53:00
3:53 PM,54.0,30.9,41,30.27,10.0,SW,4.6,-,N/A,,Clear,220,2011-10-30 19:53:00
4:45 PM,53.6,30.2,41,30.27,10.0,WSW,11.5,-,N/A,,Clear,240,2011-10-30 20:45:00
4:53 PM,54.0,28.9,38,30.27,10.0,WSW,11.5,-,N/A,,Clear,240,2011-10-30 20:53:00
5:53 PM,50.0,30.0,46,30.28,10.0,SSE,4.6,-,N/A,,Clear,160,2011-10-30 21:53:00
6:53 PM,46.9,30.0,52,30.30,10.0,Calm,Calm,-,N/A,,Clear,0,2011-10-30 22:53:00
7:53 PM,42.1,30.0,62,30.31,10.0,SE,3.5,-,N/A,,Clear,130,2011-10-30 23:53:00
8:53 PM,37.9,32.0,79,30.33,10.0,Calm,Calm,-,N/A,,Clear,0,2011-10-31 00:53:00
9:53 PM,37.9,32.0,79,30.35,10.0,Calm,Calm,-,N/A,,Clear,0,2011-10-31 01:53:00
10:53 PM,36.0,32.0,86,30.35,10.0,Calm,Calm,-,N/A,,Clear,0,2011-10-31 02:53:00
11:53 PM,36.0,30.9,82,30.35,10.0,Calm,Calm,-,N/A,,Clear,0,2011-10-31 03:53:00